EW9744 Weather Reports


Display with metric or nautical units.
time (UTC)temp
F
wind
direction
speed
MPH
gust
MPH
rain 1hr
in
rain 24hr
in
rain mn
in
humidity
%
barometer
mb
20260906140036 51 292 1.0 2.0 0.01 0.08 0.07 96 1017.8
20260906133035 51 332 1.0 3.0 0.00 0.07 0.07 96 1017.6
20260906130036 51 259 3.0 5.0 0.00 0.07 0.07 96 1017.5
20260906124537 51 270 3.0 4.0 0.00 0.07 0.07 96 1017.6
20260906123037 51 287 3.0 5.0 0.01 0.07 0.07 96 1017.7
20260906120039 51 284 2.0 4.0 0.01 0.07 0.07 96 1017.8
20260906114535 51 267 0.0 4.0 0.01 0.07 0.06 95 1017.8
20260906111535 51 192 0.0 4.0 0.00 0.06 0.06 94 1017.8
20260906110036 51 319 1.0 6.0 0.01 0.06 0.06 94 1018.0
20260906104535 52 350 2.0 5.0 0.03 0.06 0.06 92 1018.3
20260906103033 53 54 3.0 6.0 0.05 0.06 0.06 91 1018.3
20260906101542 52 267 8.0 14.0 0.05 0.06 0.05 92 1018.1
20260906100034 52 269 4.0 11.0 0.05 0.05 0.03 93 1018.4
20260906094536 52 271 4.0 7.0 0.03 0.03 0.01 92 1018.4
20260906091534 52 279 3.0 6.0 0.01 0.01 0.00 89 1018.2
20260906090034 52 258 3.0 6.0 0.00 0.00 0.00 89 1018.4
20260906083035 52 278 3.0 5.0 0.00 0.00 0.00 90 1018.5
20260906081535 52 292 2.0 4.0 0.00 0.00 0.00 89 1018.4
20260906074533 52 297 3.0 4.0 0.00 0.00 0.00 90 1018.4
20260906073032 52 313 1.0 4.0 0.00 0.00 0.00 90 1018.4
20260906071535 52 300 2.0 5.0 0.00 0.00 0.00 90 1018.5
20260906070039 51 314 1.0 4.0 0.00 0.00 0.00 90 1018.6
20260906064532 51 292 4.0 5.0 0.00 0.00 0.00 90 1018.7
20260906061535 51 266 3.0 5.0 0.00 0.00 0.00 89 1018.8
20260906054533 52 277 3.0 4.0 0.00 0.01 0.00 88 1018.9
20260906053033 52 267 3.0 5.0 0.00 0.01 0.00 87 1019.0
20260906051534 53 286 3.0 5.0 0.00 0.01 0.00 86 1019.0
20260906044614 53 278 4.0 5.0 0.00 0.01 0.00 85 1019.2
20260906043156 53 286 4.0 7.0 0.00 0.01 0.00 85 1019.1
20260906041533 53 268 5.0 8.0 0.00 0.01 0.00 84 1019.2
20260906040034 54 271 6.0 8.0 0.00 0.01 0.00 82 1019.1
20260906034539 54 270 6.0 9.0 0.00 0.01 0.00 82 1019.0
20260906033033 54 269 6.0 9.0 0.00 0.01 0.00 83 1018.8
20260906031538 54 270 6.0 9.0 0.00 0.01 0.00 83 1018.7
20260906024539 53 247 5.0 8.0 0.00 0.01 0.00 86 1018.7
20260906023034 54 264 5.0 7.0 0.00 0.01 0.00 86 1018.6
20260906021537 55 259 4.0 6.0 0.00 0.01 0.00 85 1018.7
20260906020033 56 270 3.0 4.0 0.00 0.01 0.00 83 1018.7
20260906014538 58 270 3.0 4.0 0.00 0.01 0.00 81 1018.7
20260906013040 59 233 2.0 4.0 0.00 0.01 0.00 79 1018.9
20260906011536 60 220 2.0 4.0 0.00 0.01 0.00 79 1018.9
20260906001534 60 222 4.0 8.0 0.00 0.01 0.00 81 1019.3
20260906000037 59 218 3.0 8.0 0.00 0.01 0.00 82 1019.3
20260905233033 62 258 1.0 4.0 0.00 0.01 0.00 75 1019.1
20260905231534 62 281 1.0 3.0 0.00 0.01 0.00 72 1019.1
20260905230038 62 273 1.0 4.0 0.00 0.01 0.00 69 1019.2
20260905224539 63 281 2.0 4.0 0.00 0.01 0.00 65 1019.2
20260905223035 64 334 1.0 4.0 0.00 0.01 0.00 64 1019.2
20260905221533 63 49 1.0 5.0 0.00 0.04 0.00 64 1019.2
20260905220041 63 44 2.0 5.0 0.00 0.04 0.00 65 1019.2
20260905214535 64 34 1.0 3.0 0.00 0.04 0.00 63 1019.2
20260905213034 65 14 2.0 6.0 0.00 0.04 0.00 61 1019.3
20260905210038 65 40 0.0 4.0 0.00 0.04 0.00 62 1019.6
20260905204533 65 354 2.0 7.0 0.00 0.04 0.00 64 1019.6
20260905203032 63 3 1.0 4.0 0.00 0.04 0.00 66 1019.5
20260905200041 62 54 3.0 9.0 0.00 0.04 0.00 67 1019.7
20260905194533 62 55 3.0 7.0 0.00 0.04 0.00 69 1019.8
20260905193036 62 38 4.0 11.0 0.00 0.04 0.00 70 1019.9
20260905191534 60 18 3.0 8.0 0.00 0.04 0.00 74 1020.0
20260905184531 59 23 6.0 11.0 0.00 0.04 0.00 76 1020.3
20260905183035 58 17 5.0 10.0 0.00 0.04 0.00 80 1020.4
20260905181536 56 19 5.0 9.0 0.00 0.04 0.00 82 1020.5
20260905180116 56 26 3.0 9.0 0.00 0.04 0.00 85 1020.5
20260905174534 56 70 2.0 6.0 0.00 0.04 0.00 88 1020.4
20260905173032 55 90 1.0 4.0 0.00 0.04 0.00 89 1020.4
20260905171613 55 40 2.0 4.0 0.00 0.04 0.00 90 1020.3
20260905170035 55 38 2.0 5.0 0.00 0.04 0.00 89 1020.3
20260905164536 55 119 0.0 3.0 0.00 0.04 0.00 90 1020.2
20260905163036 54 135 0.0 2.0 0.00 0.04 0.00 91 1020.2
20260905161537 53 135 0.0 2.0 0.00 0.04 0.00 93 1020.1
20260905160039 52 62 0.0 1.0 0.00 0.04 0.00 94 1020.1
20260905154537 52 337 0.0 2.0 0.00 0.04 0.00 95 1020.0
20260905151536 51 3 1.0 4.0 0.00 0.04 0.00 95 1020.0
20260905150037 50 315 0.0 2.0 0.00 0.04 0.00 96 1020.0
20260905144539 50 315 0.0 2.0 0.00 0.04 0.00 96 1019.9
20260905141538 49 306 2.0 4.0 0.00 0.05 0.00 96 1019.8